Wind_Speed
23 25 27 27 28 28 27 26 25 23 21 20 19 19 19 21 21 21 19 19 19 18 18 19 19 19 20 19 18 17 16 15 14 13 12 12 11 12 12 13 13 14 14 15 16 17 17 18 19
22 23 25 26 27 26 27 28 28 26 23 22 20 19 20 21 21 21 21 21 20 19 19 19 20 20 20 20 19 18 17 16 15 15 14 13 12 12 13 14 14 15 15 16 16 18 18 19 20
24 24 25 25 24 23 26 28 30 28 26 24 23 22 21 21 20 21 22 22 22 21 21 20 20 21 20 20 20 19 18 17 17 16 15 14 14 13 14 15 16 16 16 17 17 18 19 20 21
27 27 27 25 21 21 25 27 29 30 29 27 25 24 23 22 22 23 22 23 23 23 23 22 22 22 21 21 20 20 19 18 18 17 16 15 15 14 15 16 16 17 17 17 18 19 19 19 20
29 29 29 25 20 21 25 27 28 30 30 30 28 26 25 24 23 23 23 23 23 24 25 25 24 24 23 22 21 21 20 20 19 19 18 17 16 15 16 16 17 17 18 18 19 19 20 20 21
31 30 30 25 21 23 27 28 29 30 31 31 30 29 28 26 25 24 24 23 24 24 25 26 26 26 26 24 22 21 21 21 21 20 19 18 17 17 17 17 17 17 17 18 18 18 19 19 20
32 31 29 25 24 26 28 31 30 30 31 32 32 32 30 29 28 26 25 24 24 24 24 25 27 27 26 24 22 22 22 22 22 21 21 20 19 18 18 17 17 17 18 17 17 18 18 18 19
32 31 29 25 24 26 29 33 32 31 32 32 33 33 33 32 30 29 27 25 25 24 25 26 26 26 25 24 22 22 22 22 22 23 23 23 21 20 20 19 19 18 18 18 18 18 19 20 20
32 31 27 24 25 28 31 34 35 33 33 33 34 34 34 34 33 32 30 29 27 26 26 27 27 27 26 24 23 22 21 22 22 23 24 24 24 23 21 20 20 19 19 19 19 20 21 22 24
31 29 25 25 27 30 32 35 37 35 34 34 34 34 34 35 35 34 33 32 30 29 28 28 28 29 28 26 25 23 21 21 22 23 25 25 25 25 23 22 21 21 21 21 22 23 24 25 27
29 27 26 26 28 29 31 34 36 37 35 34 35 35 34 34 35 35 35 35 34 32 30 30 30 30 30 29 27 25 22 22 22 23 25 26 26 26 25 24 23 23 23 23 24 25 26 27 28
28 27 26 26 27 28 30 32 35 36 34 35 36 36 35 35 35 35 35 36 36 34 32 32 32 32 32 32 30 27 24 23 23 24 25 26 27 27 26 25 25 25 25 25 26 27 27 28 28
28 26 26 25 26 27 28 30 34 35 34 36 36 36 36 35 34 35 36 36 36 35 35 34 33 33 34 34 32 30 27 25 25 25 26 27 27 27 26 25 26 26 26 26 27 28 28 29 28
28 26 26 25 25 26 27 30 32 30 34 36 36 36 36 36 35 35 35 36 37 37 37 36 35 35 34 34 34 33 30 28 27 27 28 28 28 27 26 26 27 27 27 28 29 29 30 30 29
28 27 26 26 27 27 29 29 30 30 35 37 37 36 36 36 37 37 36 36 37 38 38 38 37 36 35 35 35 34 32 31 30 30 30 30 29 28 28 28 28 28 28 29 30 30 30 31 30
29 28 28 28 29 30 30 29 30 33 35 37 38 39 38 37 37 37 37 38 38 39 39 40 39 37 36 36 36 35 34 33 32 32 32 31 31 30 30 29 29 29 29 30 30 31 31 32 32
29 29 29 30 31 31 32 32 32 34 37 38 40 41 41 41 39 38 38 39 40 40 40 41 40 39 38 37 36 36 35 35 34 34 34 33 33 32 31 31 31 30 31 31 32 32 33 33 34
29 30 31 31 33 34 36 36 36 37 39 40 42 43 44 44 43 41 40 41 41 42 42 41 41 41 40 39 37 36 36 36 36 36 36 35 34 34 33 32 32 32 32 33 33 34 35 35 36
30 31 33 34 36 39 39 40 40 41 42 42 43 45 47 47 46 45 44 43 43 43 43 42 43 42 42 41 39 37 37 37 37 37 37 36 35 35 34 34 34 34 34 35 35 36 37 37 38
31 33 36 38 41 43 44 44 44 45 44 44 45 46 48 49 50 49 48 46 45 44 44 43 43 43 43 42 41 39 38 38 37 37 37 36 35 35 36 36 36 36 36 37 38 39 39 39 40
33 36 39 42 44 46 49 50 48 48 46 47 48 48 49 50 51 51 50 49 46 46 45 44 43 43 44 43 42 40 38 38 37 37 37 36 36 37 37 37 37 38 38 39 40 41 42 42 43
36 39 42 44 47 49 50 54 50 50 48 47 48 51 52 52 52 52 52 50 48 47 46 45 44 44 44 43 42 41 39 38 37 37 37 37 37 37 37 38 38 39 40 41 42 43 44 45 46
38 40 43 46 48 51 51 55 52 51 51 49 49 52 54 55 54 53 53 52 50 49 47 46 45 44 44 43 42 41 39 37 37 37 37 37 38 38 38 39 40 41 42 43 44 44 45 47 48
38 41 43 46 48 51 50 54 53 50 52 52 52 52 54 56 56 54 54 53 52 51 50 48 45 43 43 43 42 40 38 37 37 37 37 37 38 38 39 40 41 42 43 44 44 45 46 48 50
37 39 42 45 47 49 49 52 50 48 51 53 54 54 54 56 58 57 55 54 53 52 50 48 45 43 42 42 41 40 39 38 37 37 37 38 38 39 40 41 42 42 43 44 45 46 48 50 52
34 36 38 42 45 47 49 50 46 45 49 52 54 54 54 54 55 57 56 54 54 52 50 48 45 43 42 41 40 39 38 37 37 37 37 38 39 39 40 41 42 43 43 44 45 47 49 52 54
31 33 36 41 44 47 48 47 44 42 46 49 51 50 51 52 53 56 56 54 54 52 50 48 45 44 43 41 40 39 38 37 37 38 38 38 39 39 40 41 42 43 43 44 46 49 51 54 56
31 33 35 39 43 46 45 42 39 37 39 42 45 47 47 48 50 53 55 54 53 51 50 48 46 45 44 42 41 39 38 37 37 38 38 38 38 39 40 41 41 42 43 45 48 51 53 56 58
29 30 33 37 40 43 44 38 35 34 35 36 38 40 42 44 46 50 54 53 51 50 49 48 46 45 44 42 40 39 37 37 37 37 38 38 38 39 40 41 41 42 44 47 50 53 56 58 60
25 27 31 34 37 39 41 34 30 30 30 30 31 34 36 39 43 48 51 51 50 48 47 46 45 45 43 42 40 38 37 37 37 38 38 38 39 39 40 40 42 44 46 49 53 55 57 59 62
Wind_Direction
241 242 243 244 244 244 245 246 248 249 250 252 253 253 252 251 251 252 248 245 246 249 251 252 252 252 253 254 255 257 261 264 266 266 264 261 257 255 255 255 255 258 261 264 267 270 272 274 275
243 244 245 245 245 245 246 246 247 247 248 249 249 249 250 250 250 251 249 248 247 246 248 251 251 252 252 253 255 258 261 264 266 266 266 263 258 256 254 253 254 256 258 261 264 267 269 271 273
243 245 246 247 247 247 247 246 246 246 246 246 247 248 249 250 250 250 250 251 251 251 252 253 252 253 253 254 255 257 260 262 265 266 265 262 259 257 256 255 254 255 257 259 262 265 267 269 271
244 246 247 248 248 248 248 248 248 247 246 245 246 246 246 247 248 249 251 253 255 257 258 259 258 255 254 253 254 257 258 260 262 263 263 262 260 259 259 259 258 258 258 260 262 265 268 270 272
244 246 248 249 247 248 249 249 248 248 246 245 245 245 246 247 248 250 252 254 256 259 262 262 261 259 256 253 254 256 257 258 259 260 260 260 259 260 261 261 262 262 262 264 265 268 270 273 275
244 247 249 249 245 244 247 249 248 248 248 246 245 244 245 247 248 250 251 253 256 259 262 264 263 262 260 257 255 255 256 257 257 257 257 256 257 259 260 261 262 264 265 267 269 271 273 276 278
245 247 249 247 241 242 246 250 249 248 249 248 247 245 245 245 247 248 249 252 255 258 261 263 264 263 260 258 256 255 255 256 255 255 254 254 255 257 259 261 262 264 267 269 271 273 275 277 279
245 247 248 246 242 241 244 249 250 248 248 250 249 247 246 245 246 246 247 250 252 254 257 259 261 260 258 256 255 255 256 256 255 255 254 253 253 255 257 260 262 265 267 270 272 274 276 279 280
243 246 247 243 239 238 240 246 250 249 249 249 250 249 248 247 246 246 247 248 251 252 253 255 256 254 253 252 253 254 256 257 257 257 256 254 253 254 256 259 262 264 267 271 274 277 279 282 284
243 246 244 239 237 237 239 245 250 251 250 250 251 252 251 250 249 248 247 248 250 251 252 254 254 252 249 249 251 254 256 259 260 259 258 256 254 254 256 258 261 265 269 273 277 281 284 286 287
242 244 241 238 238 239 240 244 250 253 253 252 252 253 253 252 251 250 249 249 250 251 251 252 252 250 249 249 250 252 255 259 262 262 260 258 256 256 257 260 262 266 270 275 279 283 286 289 289
240 241 240 239 239 240 241 244 249 254 254 254 254 254 254 254 253 251 250 249 250 251 251 251 250 250 249 249 250 252 254 258 262 264 262 259 258 258 258 260 262 265 270 274 279 283 286 288 289
238 239 240 240 241 242 243 245 249 252 254 255 256 255 255 254 253 251 251 250 250 250 250 250 250 250 251 251 252 254 256 259 261 262 262 260 258 258 258 260 262 264 268 273 277 281 284 286 287
238 240 241 242 244 245 246 247 251 252 253 255 256 255 254 253 252 251 250 250 249 249 249 250 250 251 252 253 254 256 257 259 260 261 261 260 258 258 258 259 260 263 267 271 276 280 282 285 286
238 241 243 244 246 247 249 251 254 250 252 255 256 256 254 252 251 250 248 248 247 247 248 249 250 251 252 253 254 255 257 258 260 262 261 260 258 258 258 259 261 263 267 271 275 280 283 285 286
238 242 245 247 249 251 254 255 255 254 255 256 257 257 255 252 250 248 246 245 246 246 247 248 249 251 252 253 254 255 256 258 259 260 260 260 258 257 258 259 260 263 267 271 276 281 285 286 286
239 244 247 251 254 256 258 259 257 256 257 257 257 257 257 255 251 248 245 244 244 244 245 246 248 250 251 253 254 255 256 257 258 258 258 258 258 258 257 258 261 263 268 272 277 282 285 287 287
242 247 252 255 258 259 260 262 262 259 259 259 258 257 257 256 254 250 246 243 242 242 243 244 246 247 250 252 254 256 256 257 258 257 257 257 257 257 257 258 261 264 268 273 278 282 285 287 288
248 252 256 259 261 262 263 265 266 265 263 261 259 257 256 255 253 250 247 243 242 242 242 243 244 246 248 250 252 254 256 257 257 257 257 257 257 257 258 259 261 265 269 274 278 282 285 287 288
255 259 261 263 265 266 266 266 267 267 266 263 259 256 255 253 251 249 247 244 242 241 242 242 244 245 247 249 251 253 255 256 257 258 258 259 259 258 258 259 262 266 270 275 278 282 285 287 288
261 265 267 269 269 271 271 268 267 267 266 264 262 258 254 251 249 247 246 244 242 240 241 242 243 245 246 249 251 252 253 255 256 257 258 259 259 259 260 261 264 268 272 276 279 282 285 287 288
267 270 272 273 274 274 273 273 268 268 265 263 261 258 254 250 247 245 244 242 240 239 239 240 242 244 246 248 250 251 253 253 254 255 257 258 260 261 262 263 266 270 273 277 280 283 285 287 289
272 274 276 277 277 276 276 276 271 270 267 262 258 256 254 251 247 243 241 239 238 236 236 237 240 242 244 246 249 251 253 254 254 255 257 259 261 262 263 265 268 271 275 278 281 284 286 288 289
275 278 279 280 280 279 279 278 275 272 270 265 260 255 252 250 247 242 239 237 235 234 234 235 236 239 242 244 247 250 252 253 254 255 257 259 261 263 265 267 270 273 276 279 282 285 287 288 290
278 281 283 283 283 282 281 279 279 274 270 267 262 256 251 247 245 242 237 235 234 233 232 233 234 236 239 242 245 248 251 253 255 256 257 260 262 264 266 269 272 275 277 281 283 286 288 290 292
280 283 286 287 288 288 286 285 283 276 270 267 263 258 251 247 243 240 236 233 231 230 230 231 232 233 236 240 243 246 250 253 255 257 258 260 262 265 268 271 274 277 280 283 285 288 290 292 294
281 285 287 289 290 290 290 291 286 279 271 267 264 259 252 246 241 237 233 230 228 227 227 228 229 230 233 237 241 244 249 252 255 257 259 261 264 267 271 273 276 280 282 285 287 290 292 295 296
282 288 292 293 295 296 296 297 294 285 275 267 262 258 252 244 239 233 229 226 224 223 224 224 225 227 230 234 238 243 247 252 255 258 260 263 266 270 273 276 279 282 284 287 290 292 295 297 298
287 292 293 294 297 299 300 301 299 287 276 267 260 255 248 241 234 227 223 221 220 220 220 221 223 225 229 233 238 242 248 252 256 259 262 265 269 273 276 279 282 284 287 290 292 295 297 298 299
290 294 295 297 299 299 300 305 301 288 277 266 257 249 243 236 227 220 216 214 215 215 216 218 220 224 228 232 237 242 247 252 256 260 264 268 272 276 279 281 284 286 289 292 294 296 298 299 300
Height
5822 5824 5826 5828 5831 5833 5834 5835 5836 5837 5839 5840 5841 5842 5844 5845 5847 5849 5848 5847 5847 5848 5848 5848 5849 5850 5850 5851 5851 5852 5852 5852 5852 5852 5851 5851 5850 5850 5850 5849 5849 5849 5849 5848 5848 5848 5848 5848 5847
5817 5819 5821 5823 5825 5828 5830 5830 5831 5833 5835 5836 5837 5838 5839 5840 5842 5843 5843 5843 5843 5844 5844 5845 5845 5846 5846 5847 5848 5848 5848 5849 5849 5848 5848 5848 5848 5847 5847 5847 5846 5846 5846 5846 5845 5845 5845 5845 5844
5813 5814 5816 5818 5821 5824 5825 5825 5826 5828 5830 5831 5833 5834 5835 5836 5837 5838 5839 5839 5840 5840 5840 5841 5842 5842 5843 5843 5844 5844 5845 5845 5845 5845 5845 5845 5845 5844 5844 5844 5844 5843 5843 5843 5842 5842 5842 5841 5841
5808 5809 5811 5814 5818 5819 5819 5820 5821 5823 5825 5827 5828 5829 5830 5832 5833 5834 5835 5836 5836 5837 5837 5837 5838 5838 5839 5839 5840 5840 5841 5841 5841 5842 5842 5841 5841 5841 5841 5841 5841 5840 5840 5839 5839 5839 5838 5838 5837
5801 5803 5806 5809 5813 5814 5814 5814 5816 5817 5819 5822 5824 5825 5826 5827 5828 5830 5831 5832 5833 5833 5833 5834 5834 5834 5835 5835 5836 5836 5837 5837 5838 5838 5838 5838 5838 5838 5838 5837 5837 5837 5836 5836 5836 5835 5834 5834 5833
5796 5798 5801 5805 5809 5809 5808 5809 5810 5812 5814 5816 5818 5820 5821 5823 5824 5825 5826 5828 5828 5829 5829 5829 5830 5830 5831 5832 5832 5832 5832 5833 5833 5834 5834 5834 5834 5834 5834 5834 5833 5833 5833 5832 5832 5831 5831 5830 5829
5791 5792 5794 5799 5802 5803 5803 5803 5805 5807 5808 5810 5812 5815 5816 5818 5819 5821 5822 5823 5824 5824 5825 5825 5825 5826 5826 5827 5828 5828 5828 5829 5829 5830 5830 5830 5830 5830 5830 5830 5830 5829 5829 5829 5828 5828 5827 5826 5825
5784 5787 5789 5793 5796 5798 5798 5796 5798 5801 5803 5804 5807 5809 5811 5813 5814 5816 5817 5818 5819 5820 5820 5820 5821 5821 5822 5823 5823 5824 5824 5824 5825 5825 5826 5826 5826 5826 5826 5826 5826 5826 5825 5825 5824 5823 5822 5821 5820
5777 5781 5783 5788 5790 5791 5791 5790 5792 5795 5797 5799 5800 5803 5805 5807 5809 5810 5812 5813 5814 5815 5815 5816 5816 5816 5817 5818 5819 5819 5819 5819 5820 5820 5821 5821 5821 5821 5821 5821 5822 5821 5821 5820 5820 5819 5818 5817 5815
5771 5774 5778 5780 5782 5783 5784 5784 5785 5788 5791 5793 5795 5796 5799 5801 5803 5805 5806 5807 5808 5809 5810 5811 5811 5812 5812 5813 5814 5814 5815 5815 5815 5815 5815 5816 5816 5816 5817 5817 5817 5817 5816 5816 5815 5814 5812 5811 5810
5765 5768 5771 5773 5774 5776 5778 5778 5779 5781 5784 5787 5788 5790 5792 5794 5796 5798 5800 5801 5802 5803 5805 5805 5806 5807 5807 5808 5809 5809 5810 5810 5810 5810 5810 5810 5811 5811 5812 5812 5812 5812 5811 5810 5809 5808 5807 5805 5804
5759 5762 5764 5766 5767 5769 5771 5773 5773 5774 5778 5779 5780 5782 5785 5787 5790 5792 5793 5794 5796 5797 5799 5800 5800 5801 5802 5803 5804 5804 5805 5805 5805 5805 5805 5805 5805 5806 5807 5807 5807 5806 5805 5805 5804 5803 5801 5799 5798
5752 5755 5757 5759 5761 5763 5764 5766 5766 5767 5771 5771 5773 5775 5777 5780 5782 5784 5786 5788 5790 5791 5792 5793 5794 5795 5797 5798 5799 5800 5800 5801 5800 5800 5800 5800 5800 5801 5801 5801 5801 5800 5800 5799 5798 5797 5795 5794 5792
5745 5748 5750 5752 5754 5756 5757 5759 5759 5764 5764 5763 5765 5767 5770 5772 5775 5777 5779 5781 5782 5784 5785 5786 5788 5789 5790 5792 5793 5794 5795 5795 5795 5795 5794 5794 5794 5795 5795 5795 5795 5794 5794 5793 5792 5791 5789 5788 5786
5738 5741 5743 5745 5746 5749 5750 5753 5754 5757 5755 5756 5757 5759 5761 5764 5766 5769 5771 5773 5775 5776 5777 5779 5781 5782 5784 5785 5787 5788 5789 5790 5790 5789 5789 5789 5789 5789 5789 5789 5789 5788 5787 5787 5785 5784 5783 5781 5779
5730 5733 5736 5738 5739 5741 5744 5747 5747 5747 5748 5749 5750 5750 5752 5755 5757 5760 5763 5765 5767 5768 5770 5772 5773 5775 5777 5778 5779 5781 5782 5783 5784 5783 5783 5783 5783 5783 5783 5783 5783 5782 5781 5780 5779 5778 5776 5774 5772
5723 5726 5728 5730 5731 5733 5735 5738 5740 5739 5739 5741 5741 5742 5743 5745 5748 5751 5754 5756 5758 5760 5762 5764 5766 5768 5769 5771 5772 5774 5775 5776 5777 5777 5777 5777 5777 5777 5777 5776 5776 5775 5774 5773 5772 5770 5769 5766 5764
5717 5719 5720 5722 5723 5724 5726 5729 5730 5731 5731 5732 5732 5733 5734 5735 5739 5741 5744 5747 5749 5751 5754 5756 5758 5760 5761 5763 5765 5766 5768 5769 5769 5770 5770 5770 5770 5770 5770 5770 5769 5768 5768 5766 5765 5763 5761 5759 5756
5709 5710 5712 5713 5713 5714 5717 5719 5720 5720 5721 5722 5722 5723 5723 5725 5728 5730 5733 5736 5739 5742 5745 5748 5750 5752 5753 5755 5757 5759 5760 5761 5762 5762 5762 5762 5763 5763 5763 5762 5762 5761 5760 5759 5757 5756 5754 5751 5748
5700 5701 5702 5703 5702 5703 5706 5708 5710 5709 5710 5710 5710 5711 5712 5713 5715 5718 5721 5725 5729 5733 5736 5739 5742 5744 5746 5747 5749 5751 5752 5753 5754 5755 5755 5755 5756 5755 5755 5755 5754 5753 5752 5751 5749 5748 5745 5743 5740
5692 5693 5692 5692 5692 5692 5692 5696 5699 5698 5698 5698 5697 5697 5698 5700 5702 5705 5709 5713 5718 5723 5727 5730 5733 5735 5737 5739 5741 5743 5744 5745 5746 5747 5748 5748 5748 5748 5747 5747 5746 5745 5744 5743 5741 5739 5736 5734 5731
5683 5683 5682 5681 5680 5681 5680 5678 5688 5685 5685 5684 5682 5681 5682 5685 5688 5692 5696 5701 5707 5712 5716 5721 5724 5726 5729 5731 5733 5735 5737 5738 5739 5739 5740 5740 5741 5740 5740 5739 5738 5737 5736 5734 5732 5729 5727 5724 5721
5674 5673 5672 5670 5667 5667 5668 5662 5670 5670 5670 5669 5667 5665 5666 5669 5673 5678 5683 5688 5694 5699 5704 5709 5713 5717 5720 5723 5725 5727 5729 5731 5731 5732 5732 5733 5733 5733 5732 5731 5730 5729 5727 5725 5723 5720 5717 5713 5710
5664 5664 5661 5658 5655 5655 5656 5647 5652 5656 5651 5649 5649 5649 5650 5652 5658 5664 5669 5675 5681 5686 5692 5698 5703 5707 5711 5714 5717 5720 5722 5722 5723 5724 5725 5725 5725 5725 5724 5723 5721 5720 5718 5715 5713 5710 5706 5703 5699
5656 5654 5651 5647 5644 5643 5640 5634 5638 5639 5633 5629 5629 5631 5633 5637 5642 5649 5656 5662 5669 5675 5682 5688 5694 5698 5702 5706 5709 5712 5714 5715 5716 5716 5717 5717 5717 5717 5716 5715 5713 5711 5708 5706 5703 5699 5696 5692 5687
5647 5645 5642 5637 5632 5628 5623 5620 5624 5621 5615 5610 5609 5612 5615 5621 5626 5633 5641 5649 5656 5664 5671 5678 5684 5689 5694 5698 5701 5704 5706 5708 5709 5709 5710 5710 5710 5709 5708 5706 5704 5701 5699 5696 5692 5689 5685 5680 5676
5638 5636 5632 5627 5621 5615 5610 5607 5606 5603 5597 5593 5592 5593 5597 5603 5610 5618 5626 5635 5644 5652 5660 5668 5674 5680 5685 5689 5693 5696 5698 5700 5701 5702 5702 5702 5701 5700 5699 5697 5695 5692 5689 5685 5682 5678 5673 5669 5663
5631 5628 5623 5616 5609 5603 5598 5594 5591 5586 5580 5577 5576 5577 5580 5586 5594 5602 5612 5622 5632 5641 5649 5657 5664 5670 5676 5681 5685 5688 5691 5693 5694 5695 5695 5694 5693 5692 5690 5688 5685 5682 5679 5675 5671 5667 5662 5656 5651
5624 5621 5614 5608 5601 5594 5586 5585 5579 5572 5566 5563 5562 5562 5565 5571 5579 5588 5598 5610 5621 5630 5640 5648 5655 5662 5668 5673 5677 5681 5684 5685 5687 5687 5687 5686 5685 5683 5681 5679 5676 5672 5669 5665 5660 5655 5650 5644 5638
5616 5613 5607 5601 5594 5585 5576 5575 5570 5561 5554 5551 5549 5549 5551 5557 5565 5575 5586 5599 5611 5622 5632 5641 5648 5655 5660 5665 5670 5673 5676 5678 5679 5680 5679 5678 5677 5675 5672 5669 5666 5663 5659 5654 5649 5644 5638 5631 5624